GW4797 Weather Reports


time (UTC)temp
C
wind
direction
speed
KPH
gust
KPH
rain 1hr
cm
rain 24hr
cm
rain mn
cm
humidity
%
barometer
mb
20260510045008 11 273 0.0 3.2 0.05 1.12 0.05 90 1011.9
20260510044529 11 273 0.0 6.4 0.05 1.14 0.05 89 1012.0
20260510044002 11 277 3.2 6.4 0.05 1.14 0.05 89 1012.1
20260510043504 11 243 0.0 3.2 0.03 1.12 0.03 90 1012.3
20260510043008 11 243 0.0 4.8 0.03 1.12 0.03 89 1012.1
20260510042503 11 244 0.0 4.8 0.00 1.09 0.00 90 1012.2
20260510042004 11 294 1.6 6.4 0.00 1.09 0.00 90 1012.0
20260510041507 10 352 4.8 6.4 0.00 1.09 0.00 91 1011.8
20260510041008 10 321 1.6 4.8 0.00 1.09 0.00 94 1011.8
20260510040504 10 330 1.6 4.8 0.00 1.09 0.00 95 1011.9
20260510040015 10 352 3.2 16.1 0.00 1.09 0.00 95 1011.9
20260510035504 10 321 3.2 22.5 0.00 1.09 1.09 94 1012.2
20260510035006 10 289 14.5 22.5 0.00 1.09 1.09 94 1012.2
20260510034521 10 298 1.6 4.8 0.00 1.09 1.09 95 1011.1
20260510034007 10 110 1.6 3.2 0.00 1.12 1.09 95 1010.7
20260510033511 10 91 1.6 6.4 0.00 1.12 1.09 94 1010.8
20260510033024 10 104 3.2 6.4 0.00 1.12 1.09 94 1010.8
20260510032504 10 88 1.6 3.2 0.00 1.14 1.09 94 1010.7
20260510032004 10 84 1.6 3.2 0.00 1.14 1.09 94 1010.7
20260510031508 10 59 1.6 3.2 0.00 1.14 1.09 94 1010.8
20260510031004 10 59 0.0 3.2 0.00 1.14 1.09 94 1010.7
20260510030506 10 59 1.6 3.2 0.00 1.14 1.09 93 1010.7
20260510030010 10 59 1.6 3.2 0.00 1.14 1.09 93 1010.6
20260510025506 10 59 0.0 3.2 0.00 1.14 1.09 93 1010.3
20260510025011 10 48 0.0 3.2 0.00 1.14 1.09 93 1010.3
20260510024519 11 59 1.6 6.4 0.00 1.17 1.09 93 1010.1
20260510024006 11 120 1.6 6.4 0.00 1.19 1.09 93 1009.7
20260510023510 11 118 3.2 4.8 0.00 1.22 1.09 93 1009.8
20260510023020 11 119 1.6 4.8 0.00 1.22 1.09 92 1009.8
20260510022511 11 98 1.6 8.0 0.00 1.22 1.09 92 1009.8
20260510022013 11 98 3.2 8.0 0.00 1.22 1.09 92 1009.8
20260510021528 11 137 3.2 6.4 0.00 1.22 1.09 92 1009.9
20260510021004 11 101 3.2 6.4 0.00 1.22 1.09 92 1010.0
20260510020504 11 71 3.2 6.4 0.00 1.22 1.09 93 1010.0
20260510020008 11 91 3.2 6.4 0.00 1.22 1.09 92 1010.0
20260510015505 11 103 3.2 6.4 0.00 1.22 1.09 93 1010.0
20260510015005 11 138 3.2 6.4 0.00 1.22 1.09 93 1010.0
20260510014515 11 103 3.2 4.8 0.00 1.22 1.09 94 1009.9
20260510014006 11 126 1.6 6.4 0.00 1.22 1.09 94 1009.9
20260510013508 11 130 3.2 6.4 0.00 1.22 1.09 95 1009.8
20260510013024 11 128 3.2 6.4 0.00 1.22 1.09 94 1009.8
20260510012507 11 113 1.6 6.4 0.00 1.22 1.09 94 1009.6
20260510012010 11 96 1.6 4.8 0.00 1.22 1.09 94 1009.6
20260510011525 11 123 1.6 3.2 0.00 1.22 1.09 94 1009.6
20260510011012 11 98 1.6 3.2 0.00 1.22 1.09 94 1009.5
20260510010510 11 106 1.6 6.4 0.00 1.22 1.09 94 1009.4
20260510010006 11 132 0.0 6.4 0.00 1.22 1.09 94 1009.3
20260510005503 11 91 1.6 6.4 0.00 1.22 1.09 93 1009.2
20260510005008 11 108 1.6 4.8 0.00 1.22 1.09 93 1009.2
20260510004511 11 126 1.6 4.8 0.00 1.22 1.09 93 1009.2
20260510004008 11 86 1.6 6.4 0.00 1.22 1.09 93 1009.2
20260510003508 11 112 1.6 8.0 0.00 1.22 1.09 93 1009.1
20260510003024 11 131 3.2 8.0 0.00 1.22 1.09 93 1009.0
20260510002506 11 105 1.6 6.4 0.00 1.22 1.09 93 1008.9
20260510002010 11 113 1.6 6.4 0.00 1.22 1.09 93 1008.9
20260510001521 11 138 3.2 4.8 0.00 1.22 1.09 93 1008.9
20260510001011 11 127 1.6 3.2 0.00 1.22 1.09 92 1008.8
20260510000510 12 128 0.0 3.2 0.00 1.22 1.09 91 1008.7
20260510000027 12 128 1.6 3.2 0.00 1.22 1.09 91 1008.7
20260509235508 12 113 1.6 3.2 0.00 1.22 1.09 90 1008.6
20260509235012 12 127 1.6 4.8 0.00 1.22 1.09 90 1008.6
20260509234514 13 140 0.0 6.4 0.00 1.22 1.09 89 1008.5
20260509234005 13 104 3.2 9.7 0.00 1.22 1.09 88 1008.5
20260509233504 13 121 3.2 9.7 0.00 1.22 1.09 88 1008.5
20260509233023 13 158 1.6 4.8 0.00 1.22 1.09 88 1008.5
20260509232512 13 128 1.6 4.8 0.00 1.22 1.09 88 1008.5
20260509232006 13 85 1.6 6.4 0.00 1.22 1.09 88 1008.5
20260509231519 13 146 1.6 6.4 0.00 1.22 1.09 88 1008.5
20260509231007 13 136 1.6 4.8 0.00 1.22 1.09 89 1008.5
20260509230510 13 145 1.6 4.8 0.00 1.22 1.09 89 1008.5
20260509230024 13 101 1.6 3.2 0.00 1.22 1.09 89 1008.6
20260509225512 13 161 1.6 4.8 0.00 1.22 1.09 89 1008.5
20260509225014 13 136 1.6 4.8 0.00 1.22 1.09 87 1008.6
20260509224531 13 155 1.6 6.4 0.00 1.24 1.09 87 1008.5
20260509224008 13 139 3.2 6.4 0.00 1.24 1.09 87 1008.5
20260509223512 13 128 0.0 6.4 0.00 1.24 1.09 88 1008.6
20260509223015 13 149 1.6 4.8 0.00 1.24 1.09 87 1008.6
20260509222504 13 168 1.6 6.4 0.00 1.24 1.09 88 1008.6
20260509222005 13 155 1.6 8.0 0.00 1.27 1.09 87 1008.6
20260509221520 14 123 3.2 9.7 0.00 1.27 1.09 86 1008.6
20260509221011 14 163 4.8 9.7 0.00 1.30 1.09 86 1008.4
20260509220515 14 113 3.2 8.0 0.00 1.30 1.09 87 1008.6
20260509220028 14 117 3.2 6.4 0.00 1.30 1.09 86 1008.8
20260509215507 14 163 0.0 8.0 0.00 1.30 1.09 85 1008.9
20260509215012 14 267 3.2 8.0 0.00 1.30 1.09 85 1008.9
20260509214525 14 252 1.6 6.4 0.00 1.30 1.09 85 1008.8
20260509214012 14 204 1.6 6.4 0.00 1.30 1.09 86 1008.7
20260509213512 13 196 1.6 6.4 0.00 1.30 1.09 87 1008.7
20260509213030 13 176 1.6 9.7 0.00 1.30 1.09 89 1008.8
20260509212508 13 201 3.2 11.3 0.00 1.30 1.09 88 1009.0
20260509212010 13 192 3.2 11.3 0.00 1.30 1.09 88 1009.1
20260509211518 13 173 3.2 8.0 0.00 1.30 1.09 88 1009.1
20260509211006 13 212 3.2 9.7 0.03 1.30 1.09 89 1009.1
20260509210511 13 187 4.8 9.7 0.03 1.30 1.09 90 1009.1
20260509210004 13 202 3.2 6.4 0.03 1.30 1.09 90 1009.1
20260509205503 13 246 3.2 8.0 0.03 1.30 1.09 91 1009.2
20260509205003 12 151 3.2 8.0 0.03 1.30 1.09 91 1009.1
20260509204504 12 192 3.2 6.4 0.03 1.30 1.09 91 1009.2
20260509204007 12 241 1.6 6.4 0.03 1.30 1.09 91 1009.2
20260509203506 12 226 3.2 4.8 0.03 1.30 1.09 92 1009.3
20260509203014 12 213 3.2 4.8 0.05 1.30 1.09 92 1009.3
20260509202505 12 214 1.6 9.7 0.05 1.30 1.09 93 1009.3
20260509202008 12 202 1.6 9.7 0.08 1.30 1.09 93 1009.3
20260509201514 11 240 4.8 9.7 0.08 1.30 1.09 93 1009.4
20260509201004 11 182 3.2 9.7 0.05 1.27 1.07 93 1009.5
20260509200506 11 171 3.2 8.0 0.05 1.27 1.07 93 1009.6
20260509200018 11 146 3.2 11.3 0.05 1.27 1.07 93 1009.6
20260509195513 11 207 4.8 11.3 0.05 1.27 1.07 93 1009.7
20260509195003 11 221 3.2 14.5 0.05 1.27 1.07 93 1009.7
20260509194505 11 206 4.8 14.5 0.05 1.27 1.07 93 1009.7
20260509194005 11 179 1.6 9.7 0.05 1.27 1.07 93 1009.8
20260509193503 11 256 3.2 6.4 0.05 1.27 1.07 93 1009.9
20260509193008 11 208 1.6 6.4 0.03 1.24 1.04 94 1009.9
20260509192503 11 110 1.6 9.7 0.03 1.24 1.04 94 1009.8
20260509192006 11 192 1.6 9.7 0.00 1.22 1.02 93 1009.9
20260509191516 11 147 3.2 8.0 0.03 1.22 1.02 94 1009.9
20260509191008 11 145 1.6 8.0 0.05 1.22 1.02 94 1009.9
20260509190506 11 138 3.2 9.7 0.05 1.22 1.02 94 1009.9
20260509190017 11 174 3.2 9.7 0.08 1.22 1.02 94 1009.9
20260509185507 11 132 1.6 8.0 0.08 1.22 1.02 94 1009.9
20260509185014 11 130 3.2 8.0 0.08 1.22 1.02 94 1009.9
20260509184530 11 178 3.2 11.3 0.08 1.22 1.02 94 1009.9
20260509184011 11 192 1.6 11.3 0.08 1.22 1.02 95 1009.9
20260509183505 11 202 3.2 9.7 0.10 1.22 1.02 95 1009.9
20260509183013 10 171 3.2 9.7 0.10 1.22 1.02 95 1010.0
20260509182503 10 184 3.2 11.3 0.10 1.22 1.02 95 1010.0
20260509182005 10 138 3.2 11.3 0.10 1.22 1.02 95 1009.9
20260509181509 10 140 3.2 11.3 0.10 1.19 0.99 95 1009.9
20260509181004 10 142 4.8 9.7 0.08 1.17 0.97 95 1010.0
20260509180507 10 150 3.2 8.0 0.08 1.17 0.97 95 1010.0
20260509180015 10 96 3.2 8.0 0.08 1.14 0.94 95 1010.0
20260509175508 10 146 3.2 8.0 0.10 1.14 0.94 95 1009.9
20260509175008 10 146 1.6 9.7 0.10 1.14 0.94 95 1009.9
20260509174519 10 163 3.2 9.7 0.13 1.14 0.94 95 1009.9
20260509174006 10 145 3.2 11.3 0.15 1.14 0.94 95 1010.0
20260509173511 10 108 1.6 11.3 0.15 1.12 0.91 95 1009.9
20260509173024 10 82 3.2 8.0 0.18 1.12 0.91 95 1009.9
20260509172512 10 128 3.2 6.4 0.18 1.12 0.91 95 1009.9
20260509172003 10 150 3.2 6.4 0.18 1.12 0.91 95 1009.9
20260509171508 10 163 1.6 11.3 0.18 1.09 0.89 95 1010.0
20260509171003 10 140 4.8 12.9 0.18 1.09 0.89 95 1010.0
20260509170505 10 173 1.6 12.9 0.20 1.09 0.89 95 1010.0
20260509170014 10 157 3.2 11.3 0.18 1.07 0.86 95 1010.0
20260509165504 10 144 3.2 12.9 0.15 1.04 0.84 95 1009.9
20260509165003 10 96 1.6 12.9 0.15 1.04 0.84 95 1009.9
20260509164519 10 136 3.2 11.3 0.13 1.02 0.81 95 1009.9
20260509164006 10 161 3.2 11.3 0.13 0.99 0.79 95 1009.9
20260509163513 10 163 3.2 8.0 0.10 0.97 0.76 95 1009.9
20260509163021 10 155 1.6 8.0 0.08 0.94 0.74 95 1010.0
20260509162512 10 84 3.2 6.4 0.08 0.94 0.74 95 1010.0
20260509162013 10 130 3.2 6.4 0.08 0.94 0.74 95 1010.1
20260509161526 10 147 1.6 9.7 0.08 0.91 0.71 95 1010.1
20260509161014 10 157 3.2 9.7 0.08 0.91 0.71 95 1010.0
20260509160503 9 137 1.6 6.4 0.05 0.89 0.69 95 1010.1
20260509160008 9 155 1.6 8.0 0.05 0.89 0.69 95 1010.1
20260509155506 9 153 3.2 8.0 0.08 0.89 0.69 95 1010.2
20260509155004 9 80 1.6 8.0 0.08 0.89 0.69 95 1010.3
20260509154521 9 142 1.6 8.0 0.10 0.89 0.69 95 1010.2
20260509154009 9 121 1.6 6.4 0.08 0.86 0.66 95 1010.3
20260509153508 9 153 1.6 6.4 0.10 0.86 0.66 95 1010.3
20260509153020 9 85 1.6 6.4 0.13 0.86 0.66 95 1010.4
20260509152507 9 130 3.2 4.8 0.13 0.86 0.66 95 1010.5
20260509152010 9 154 0.0 8.0 0.15 0.86 0.66 95 1010.5
20260509151524 9 106 3.2 8.0 0.15 0.84 0.64 95 1010.6
20260509151011 9 124 1.6 6.4 0.15 0.84 0.64 95 1010.6
20260509150512 9 100 1.6 6.4 0.18 0.84 0.64 95 1010.6
20260509150029 9 173 1.6 6.4 0.18 0.84 0.64 95 1010.6
20260509145511 9 76 1.6 6.4 0.18 0.81 0.61 95 1010.6
20260509145007 9 173 1.6 8.0 0.20 0.81 0.61 94 1010.6
20260509144519 9 177 1.6 6.4 0.18 0.79 0.58 94 1010.7
20260509144004 9 184 1.6 6.4 0.20 0.79 0.58 94 1010.6
20260509143504 9 167 1.6 6.4 0.18 0.76 0.56 94 1010.7
20260509143021 9 165 1.6 8.0 0.15 0.74 0.53 95 1010.7
20260509142508 9 180 1.6 8.0 0.18 0.74 0.53 94 1010.7
20260509142009 9 177 1.6 4.8 0.15 0.71 0.51 94 1010.7
20260509141524 9 105 1.6 6.4 0.13 0.69 0.48 94 1010.7
20260509141010 9 181 0.0 6.4 0.13 0.69 0.48 94 1010.7
20260509140513 9 137 0.0 4.8 0.13 0.66 0.46 94 1010.7
20260509140027 9 119 1.6 4.8 0.13 0.66 0.46 95 1010.7
20260509135510 9 115 0.0 3.2 0.10 0.64 0.43 95 1010.8
20260509135008 9 134 1.6 3.2 0.08 0.61 0.41 94 1010.8
20260509134530 9 120 0.0 3.2 0.08 0.61 0.41 95 1010.8
20260509134013 9 109 0.0 4.8 0.08 0.58 0.38 95 1011.0
20260509133512 9 47 1.6 4.8 0.08 0.58 0.38 95 1011.0
20260509133017 9 153 0.0 3.2 0.08 0.58 0.38 95 1011.1
20260509132508 8 144 0.0 3.2 0.05 0.56 0.36 95 1011.1
20260509132011 8 87 1.6 4.8 0.05 0.56 0.36 95 1011.1
20260509131522 8 83 1.6 4.8 0.05 0.56 0.36 95 1011.1
20260509131011 8 122 1.6 4.8 0.08 0.56 0.36 95 1011.1
20260509130511 8 97 1.6 4.8 0.05 0.53 0.33 95 1011.1
20260509130047 8 115 0.0 4.8 0.05 0.53 0.33 95 1011.1
20260509125510 8 148 0.0 4.8 0.05 0.53 0.33 95 1011.1
20260509125009 8 106 1.6 4.8 0.05 0.53 0.33 94 1011.1
20260509124531 8 117 1.6 4.8 0.05 0.53 0.33 94 1011.2
20260509124008 8 134 0.0 3.2 0.03 0.51 0.30 95 1011.2
20260509123513 8 123 0.0 3.2 0.03 0.51 0.30 95 1011.2
20260509123028 8 119 0.0 3.2 0.03 0.51 0.30 95 1011.2
20260509122508 8 118 0.0 3.2 0.03 0.51 0.30 95 1011.1
20260509122010 8 117 0.0 3.2 0.05 0.51 0.30 95 1011.1
20260509121518 8 117 0.0 3.2 0.05 0.51 0.30 95 1011.1
20260509121008 8 117 0.0 3.2 0.03 0.48 0.28 95 1011.1
20260509120503 8 118 0.0 3.2 0.03 0.48 0.28 95 1011.2
20260509120005 8 83 1.6 3.2 0.03 0.48 0.28 95 1011.2
20260509115503 8 104 0.0 3.2 0.03 0.48 0.28 95 1011.1
20260509115003 8 154 0.0 3.2 0.03 0.48 0.28 95 1011.1
20260509114507 8 171 0.0 3.2 0.03 0.48 0.28 95 1011.1
20260509114004 8 171 0.0 3.2 0.03 0.48 0.28 95 1011.1
20260509113504 8 205 0.0 3.2 0.05 0.48 0.28 95 1011.1
20260509113012 8 225 0.0 3.2 0.05 0.48 0.28 95 1011.0
20260509112504 8 225 0.0 3.2 0.05 0.48 0.28 95 1011.1
20260509112004 8 244 0.0 3.2 0.03 0.46 0.25 95 1011.1
20260509111516 8 244 0.0 3.2 0.03 0.46 0.25 95 1011.1
20260509111004 8 244 0.0 3.2 0.03 0.46 0.25 95 1011.1
20260509110509 8 250 0.0 3.2 0.03 0.46 0.25 95 1011.1
20260509110021 8 250 0.0 3.2 0.03 0.46 0.25 95 1011.1
20260509105508 8 250 0.0 3.2 0.03 0.46 0.25 95 1011.2
20260509105003 8 250 0.0 3.2 0.03 0.46 0.25 95 1011.2
20260509104504 8 284 0.0 3.2 0.03 0.46 0.25 95 1011.2
20260509104003 8 284 0.0 3.2 0.03 0.46 0.25 95 1011.1
20260509103505 8 284 1.6 3.2 0.00 0.43 0.23 95 1011.1
20260509103008 8 284 0.0 3.2 0.00 0.43 0.23 95 1011.0
20260509102505 8 284 0.0 3.2 0.00 0.43 0.23 95 1011.0
20260509102007 8 284 0.0 3.2 0.00 0.43 0.23 95 1011.1
20260509101515 8 284 0.0 3.2 0.00 0.43 0.23 95 1011.0
20260509101006 8 279 0.0 3.2 0.00 0.43 0.23 95 1011.0
20260509100508 8 263 0.0 3.2 0.00 0.43 0.23 95 1011.0
20260509100022 8 89 0.0 3.2 0.00 0.43 0.23 95 1011.0
20260509095508 8 169 0.0 3.2 0.00 0.43 0.23 95 1011.1
20260509095014 8 180 0.0 3.2 0.00 0.43 0.23 95 1011.1
20260509094519 8 156 1.6 3.2 0.00 0.43 0.23 95 1011.1
20260509094004 8 208 0.0 3.2 0.03 0.43 0.23 95 1011.1
20260509093503 8 104 0.0 3.2 0.03 0.43 0.23 95 1011.2
20260509093004 8 104 1.6 3.2 0.03 0.43 0.23 95 1011.4
20260509092507 8 244 0.0 3.2 0.03 0.43 0.23 95 1011.3
20260509092003 8 172 0.0 4.8 0.03 0.43 0.23 95 1011.5
20260509091508 8 183 1.6 4.8 0.03 0.43 0.23 95 1011.5
20260509091003 8 205 0.0 3.2 0.03 0.43 0.23 95 1011.4
20260509090016 8 91 1.6 3.2 0.05 0.43 0.23 95 1011.4
20260509085506 8 47 0.0 3.2 0.05 0.43 0.23 95 1011.4
20260509085009 8 109 0.0 3.2 0.05 0.43 0.23 95 1011.4
20260509084526 8 192 0.0 3.2 0.05 0.43 0.23 95 1011.4
20260509084011 8 154 1.6 3.2 0.03 0.41 0.20 95 1011.3
20260509083507 8 106 0.0 3.2 0.03 0.41 0.20 95 1011.2
20260509083033 8 161 0.0 3.2 0.03 0.41 0.20 95 1011.4
20260509082503 8 161 0.0 3.2 0.03 0.41 0.20 95 1011.3
20260509082004 8 161 0.0 3.2 0.03 0.41 0.20 95 1011.3
20260509081513 8 161 0.0 3.2 0.03 0.41 0.20 95 1011.3
20260509081004 8 161 0.0 3.2 0.05 0.41 0.20 95 1011.3
20260509080504 8 146 0.0 3.2 0.03 0.38 0.18 95 1011.2
20260509080012 8 114 0.0 3.2 0.03 0.38 0.18 95 1011.2
20260509075507 8 114 0.0 3.2 0.03 0.38 0.18 95 1011.4
20260509075005 8 109 0.0 3.2 0.03 0.38 0.18 95 1011.4
20260509074519 8 109 0.0 3.2 0.03 0.38 0.18 94 1011.5
20260509074008 8 109 0.0 3.2 0.05 0.38 0.18 94 1011.5
20260509073511 8 109 0.0 3.2 0.05 0.38 0.18 94 1011.5
20260509073024 8 109 0.0 3.2 0.05 0.38 0.18 94 1011.5
20260509072509 8 109 1.6 3.2 0.08 0.38 0.18 94 1011.6
20260509072010 8 109 1.6 3.2 0.10 0.38 0.18 94 1011.7
20260509071524 8 109 0.0 3.2 0.10 0.38 0.18 94 1011.9
20260509071005 8 109 0.0 3.2 0.08 0.36 0.15 94 1012.0
20260509070504 8 109 0.0 3.2 0.10 0.36 0.15 94 1012.0
20260509070012 8 109 0.0 3.2 0.10 0.36 0.15 94 1012.1
20260509065504 8 109 0.0 3.2 0.10 0.36 0.15 94 1012.1
20260509065004 8 109 0.0 3.2 0.10 0.36 0.15 94 1012.1
20260509064521 8 109 0.0 3.2 0.10 0.36 0.15 94 1012.3
20260509064008 8 109 0.0 1.6 0.08 0.33 0.13 94 1012.4
20260509063510 8 109 0.0 0.0 0.08 0.33 0.13 94 1012.4
20260509063021 8 109 0.0 0.0 0.10 0.33 0.13 94 1012.4
20260509062509 8 160 0.0 0.0 0.08 0.30 0.10 94 1012.5
20260509062011 8 160 0.0 0.0 0.05 0.28 0.08 94 1012.7
20260509061524 8 164 0.0 3.2 0.05 0.28 0.08 94 1012.8
20260509061008 8 164 0.0 3.2 0.05 0.28 0.08 94 1012.8
20260509060509 8 164 0.0 3.2 0.03 0.25 0.05 94 1012.8
20260509060024 8 164 0.0 3.2 0.03 0.25 0.05 94 1012.8
20260509055505 8 164 0.0 3.2 0.03 0.25 0.05 94 1012.8
20260509055007 8 164 0.0 3.2 0.03 0.25 0.05 93 1012.8
20260509054513 8 164 0.0 3.2 0.05 0.25 0.05 93 1012.8
20260509054005 8 178 0.0 3.2 0.05 0.25 0.05 93 1012.7
20260509053505 8 307 0.0 3.2 0.05 0.25 0.05 93 1012.7
20260509053029 8 307 0.0 3.2 0.03 0.23 0.03 93 1012.6
20260509052508 8 307 0.0 3.2 0.03 0.23 0.03 93 1012.7
20260509052013 8 307 0.0 3.2 0.03 0.23 0.03 93 1012.7
20260509051503 8 307 0.0 3.2 0.03 0.23 0.03 93 1012.7
20260509051003 8 229 0.0 3.2 0.03 0.23 0.03 93 1012.8
20260509050503 8 229 0.0 3.2 0.03 0.23 0.03 93 1013.0
20260509050007 8 229 0.0 3.2 0.03 0.23 0.03 93 1013.0
20260509045503 8 217 0.0 3.2 0.03 0.23 0.03 93 1013.0